Date String (YYYY-MM-DD hh:mm:ss) UTC,Instrument flags,absolute air pressure of the measurement (hPa),sample flow rate (lpm),inlet stack bypass flow (lpm),air temperature of the measurement (°C),ambient temperature measured by the external sensor (°C),aerosol sample conditioner tube jacket temperature (°C),OPC LED temperature (°C),internal box temperature (°C),relative humidity of the measurement (%),span deviation,mass concentration of particles derived from Lorenz-Mie calculation of OPC scattering (μg/m³),mass concentration of particles derived from Lorenz-Mie calculation of OPC scattering (μg/m³),mass concentration of particles derived from Lorenz-Mie calculation of OPC scattering (μg/m³)
DateTimeUTC,F1_M11,P_M11,Q1_M11,Q2_M11,T1_M11,T2_M11,T3_M11,T4_M11,T5_M11,U1_M11,ZSPAN_M11,X2_M11,X0_M11,X1_M11
2023-12-30 21:00:00,SystemResetWarning,0828.5,5.00,000.00,026.6,026.0,000.0,034.7,028.1,7.5,0000.0,0004.43,0008.62,0004.15
2023-12-30 21:01:00,SystemResetWarning,0828.6,5.00,000.00,026.6,026.0,000.0,034.7,028.1,7.4,0000.0,0004.47,0008.89,0004.15
2023-12-30 21:02:00,SystemResetWarning,0828.5,5.00,000.00,026.6,026.0,000.0,034.8,028.1,7.4,0000.0,0004.48,0008.57,0004.15
2023-12-30 21:03:00,SystemResetWarning,0828.5,5.01,000.00,026.7,026.0,000.0,034.8,028.1,7.4,0000.0,0004.49,0008.41,0004.16
2023-12-30 21:04:00,SystemResetWarning,0828.5,5.00,000.00,026.7,026.1,000.0,034.8,028.1,7.4,0000.0,0004.51,0008.40,0004.19
2023-12-30 21:05:00,SystemResetWarning,0828.5,5.00,000.00,026.7,026.1,000.0,034.8,028.1,7.4,0000.0,0004.56,0008.53,0004.23
2023-12-30 21:06:00,SystemResetWarning,0828.5,5.00,000.00,026.7,026.1,000.0,034.8,028.1,7.3,0000.0,0004.60,0008.98,0004.28
2023-12-30 21:07:00,SystemResetWarning,0828.5,5.00,000.00,026.7,026.1,000.0,034.8,028.1,7.3,0000.0,0004.64,0009.65,0004.33
2023-12-30 21:08:00,SystemResetWarning,0828.5,5.00,000.00,026.7,026.1,000.0,034.9,028.1,7.3,0000.0,0004.66,0009.75,0004.36
2023-12-30 21:09:00,SystemResetWarning,0828.5,5.00,000.00,026.8,026.1,000.0,034.9,028.2,7.3,0000.0,0004.70,0009.81,0004.39
2023-12-30 21:10:00,SystemResetWarning,0828.6,5.00,000.00,026.8,026.1,000.0,034.9,028.2,7.3,0000.0,0004.73,0009.66,0004.41
2023-12-30 21:11:00,SystemResetWarning,0828.6,5.01,000.00,026.8,026.1,000.0,034.9,028.2,7.2,0000.0,0004.77,0009.10,0004.43
2023-12-30 21:12:00,SystemResetWarning,0828.6,4.99,000.00,026.8,026.1,000.0,034.9,028.2,7.3,0000.0,0004.76,0008.95,0004.45
2023-12-30 21:13:00,SystemResetWarning,0828.5,5.00,000.00,026.8,026.2,000.0,034.9,028.2,7.3,0000.0,0004.79,0009.05,0004.48
2023-12-30 21:14:00,SystemResetWarning,0828.6,5.00,000.00,026.8,026.2,000.0,034.9,028.2,7.3,0000.0,0004.85,0009.17,0004.53
2023-12-30 21:15:00,SystemResetWarning,0828.6,5.00,000.00,026.8,026.2,000.0,035.0,028.3,7.3,0000.0,0004.87,0009.14,0004.53
2023-12-30 21:16:00,SystemResetWarning,0828.6,5.00,000.00,026.8,026.2,000.0,035.0,028.3,7.3,0000.0,0004.89,0009.80,0004.54
2023-12-30 21:17:00,SystemResetWarning,0828.6,5.00,000.00,026.9,026.2,000.0,035.0,028.3,7.3,0000.0,0004.95,0009.88,0004.55
2023-12-30 21:18:00,SystemResetWarning,0828.6,5.01,000.00,026.9,026.3,000.0,035.0,028.3,7.2,0000.0,0004.97,0009.27,0004.56
2023-12-30 21:19:00,SystemResetWarning,0828.6,5.00,000.00,026.9,026.3,000.0,035.0,028.3,7.2,0000.0,0005.00,0009.78,0004.57
2023-12-30 21:20:00,SystemResetWarning,0828.6,5.00,000.00,026.9,026.3,000.0,035.0,028.3,7.2,0000.0,0005.02,0011.06,0004.60
2023-12-30 21:21:00,SystemResetWarning,0828.5,5.00,000.00,026.9,026.3,000.0,035.0,028.3,7.3,0000.0,0005.01,0011.34,0004.61
2023-12-30 21:22:00,SystemResetWarning,0828.5,5.00,000.00,026.9,026.3,000.0,035.1,028.4,7.2,0000.0,0005.01,0011.26,0004.61
2023-12-30 21:23:00,SystemResetWarning,0828.5,5.00,000.00,027.0,026.3,000.0,035.1,028.4,7.2,0000.0,0005.04,0011.29,0004.62
2023-12-30 21:24:00,SystemResetWarning,0828.6,5.00,000.00,027.0,026.3,000.0,035.1,028.4,7.2,0000.0,0005.07,0011.27,0004.63
2023-12-30 21:25:00,SystemResetWarning,0828.5,5.00,000.00,027.0,026.4,000.0,035.1,028.4,7.2,0000.0,0005.05,0011.33,0004.63
2023-12-30 21:26:00,SystemResetWarning,0828.5,5.00,000.00,027.0,026.4,000.0,035.1,028.4,7.2,0000.0,0005.10,0011.44,0004.66
2023-12-30 21:27:00,SystemResetWarning,0828.6,5.00,000.00,027.0,026.4,000.0,035.1,028.5,7.3,0000.0,0005.14,0011.33,0004.68
2023-12-30 21:28:00,SystemResetWarning,0828.6,5.00,000.00,027.0,026.4,000.0,035.2,028.5,7.3,0000.0,0005.13,0011.03,0004.70
2023-12-30 21:29:00,SystemResetWarning,0828.6,5.01,000.00,027.1,026.4,000.0,035.2,028.5,7.2,0000.0,0005.16,0010.92,0004.73
2023-12-30 21:30:00,SystemResetWarning,0828.6,5.00,000.00,027.1,026.5,000.0,035.2,028.5,7.2,0000.0,0005.16,0010.51,0004.73
2023-12-30 21:31:00,SystemResetWarning,0828.6,5.00,000.00,027.1,026.5,000.0,035.2,028.5,7.2,0000.0,0005.15,0009.35,0004.71
2023-12-30 21:32:00,SystemResetWarning,0828.6,5.00,000.00,027.1,026.5,000.0,035.2,028.6,7.3,0000.0,0005.18,0008.96,0004.73
2023-12-30 21:33:00,SystemResetWarning,0828.6,5.00,000.00,027.1,026.5,000.0,035.3,028.6,7.3,0000.0,0005.26,0009.44,0004.76
2023-12-30 21:34:00,SystemResetWarning,0828.6,5.00,000.00,027.1,026.5,000.0,035.3,028.6,7.2,0000.0,0005.32,0009.76,0004.79
2023-12-30 21:35:00,SystemResetWarning,0828.6,4.99,000.00,027.2,026.3,000.0,035.3,028.7,7.3,0000.0,0005.32,0009.86,0004.80
2023-12-30 21:36:00,SystemResetWarning,0828.6,4.99,000.00,027.2,025.0,000.0,035.3,028.5,7.2,0000.0,0005.34,0010.67,0004.82
2023-12-30 21:37:00,SystemResetWarning,0828.6,5.00,000.00,027.0,023.1,000.0,035.3,028.0,7.2,0000.0,0005.34,0010.96,0004.82
2023-12-30 21:38:00,SystemResetWarning,0828.5,5.01,000.00,026.8,022.7,000.0,035.2,027.7,7.3,0000.0,0005.31,0011.01,0004.81
2023-12-30 21:39:00,SystemResetWarning,0828.6,5.01,000.00,026.6,023.0,000.0,035.1,027.5,7.5,0000.0,0005.29,0010.87,0004.80
2023-12-30 21:40:00,SystemResetWarning,0828.5,4.99,000.00,026.6,023.4,000.0,035.0,027.4,7.5,0000.0,0005.25,0010.88,0004.78
2023-12-30 21:41:00,SystemResetWarning,0828.6,5.00,000.00,026.5,023.8,000.0,035.0,027.5,7.6,0000.0,0005.25,0010.94,0004.77
2023-12-30 21:42:00,SystemResetWarning,0828.6,5.01,000.00,026.5,024.2,000.0,034.9,027.6,7.6,0000.0,0005.25,0010.84,0004.80
2023-12-30 21:43:00,SystemResetWarning,0828.6,5.00,000.00,026.5,024.5,000.0,034.9,027.7,7.5,0000.0,0005.27,0011.15,0004.81
2023-12-30 21:44:00,SystemResetWarning,0828.6,5.00,000.00,026.5,024.7,000.0,034.9,027.8,7.5,0000.0,0005.27,0011.09,0004.82
2023-12-30 21:45:00,SystemResetWarning,0828.6,5.00,000.00,026.5,025.0,000.0,034.9,027.8,7.5,0000.0,0005.25,0010.71,0004.83
2023-12-30 21:46:00,SystemResetWarning,0828.6,5.00,000.00,026.5,025.2,000.0,034.8,027.9,7.4,0000.0,0005.26,0010.72,0004.86
2023-12-30 21:47:00,SystemResetWarning,0828.6,5.00,000.00,026.6,025.3,000.0,034.8,028.0,7.4,0000.0,0005.29,0011.58,0004.89
2023-12-30 21:48:00,SystemResetWarning,0828.6,5.00,000.00,026.6,025.4,000.0,034.8,028.0,7.4,0000.0,0005.35,0011.01,0004.92
2023-12-30 21:49:00,SystemResetWarning,0828.6,5.00,000.00,026.6,025.6,000.0,034.8,028.1,7.4,0000.0,0005.39,0010.73,0004.96
2023-12-30 21:50:00,SystemResetWarning,0828.6,5.00,000.00,026.6,025.7,000.0,034.8,028.1,7.4,0000.0,0005.43,0010.48,0005.00
2023-12-30 21:51:00,SystemResetWarning,0828.6,5.00,000.00,026.7,025.8,000.0,034.8,028.1,7.5,0000.0,0005.47,0011.10,0005.03
2023-12-30 21:52:00,SystemResetWarning,0828.6,5.00,000.00,026.7,025.8,000.0,034.9,028.2,7.4,0000.0,0005.55,0011.34,0005.08
2023-12-30 21:53:00,SystemResetWarning,0828.6,4.99,000.00,026.7,025.9,000.0,034.9,028.2,7.4,0000.0,0005.60,0011.52,0005.11
2023-12-30 21:54:00,SystemResetWarning,0828.6,5.00,000.00,026.8,026.0,000.0,034.9,028.3,7.4,0000.0,0005.61,0011.39,0005.12
2023-12-30 21:55:00,SystemResetWarning,0828.6,5.00,000.00,026.8,026.0,000.0,034.9,028.3,7.4,0000.0,0005.59,0011.14,0005.14
2023-12-30 21:56:00,SystemResetWarning,0828.6,5.00,000.00,026.8,026.1,000.0,034.9,028.3,7.4,0000.0,0005.63,0011.19,0005.14
2023-12-30 21:57:00,SystemResetWarning,0828.6,4.99,000.00,026.8,025.1,000.0,034.9,028.2,7.3,0000.0,0005.63,0011.38,0005.13
2023-12-30 21:58:00,SystemResetWarning,0828.5,5.00,000.00,026.6,022.8,000.0,034.9,027.7,7.4,0000.0,0005.58,0010.33,0005.09
2023-12-30 21:59:00,SystemResetWarning,0828.6,5.01,000.00,026.5,022.0,000.0,034.8,027.4,7.5,0000.0,0005.51,0009.84,0005.05
